SCP
0 0 0 0 0 0 0 0 0 0 0 0 0 0 0 -0 0 0 0 0 0 0 0 0 0 0 0 0 0 0 0 0 0 0 0 -0 0 0 0 0 0 0 0 0 0 0 0 0 0 0 0 0 0 0
0 0 0 0 0 0 0 0 0 0 0 0 0 0 -0 -0 0 0 0 0 0 0 0 0 0 0 0 0 0 0 0 0 0 0 0 -0 0 0 0 0 0 -0 -0 0 0 0 0 0 0 0 0 0 0 0
0 0 0 0 0 0 0 0 0 0 0 0 0 0 0 -0 0 0 0 0 0 0 0 0 0 0 0 0 0 0 0 0 0 0 -0 -0 0 0 0 0 0 0 -0 -0 0 0 0 0 0 0 0 0 0 0
0 0 0 0 0 0 0 0 0 0 0 0 0 0 -0 0 0 0 0 0 0 0 -0 -0 0 0 0 -0 0 0 0 0 0 -0 -0 -0 -0 -0 0 0 -0 -0 0 0 0 0 0 0 0 0 0 0 0 0
0 0 0 0 0 0 0 0 0 0 0 0 0 0 -0 -0 0 0 0 0 0 0 -0 -0 0 -0 -0 -0 -0 0 0 0 0 0 -0 -0 -0 -0 0 0 -0 -0 0 0 0 0 0 0 0 0 0 0 0 0
0 0 0 0 0 0 0 0 0 0 0 0 0 0 -0 0 0 0 0 -0 0 0 -0 -0 -0 0 0 -0 -0 0 0 0 0 0 -0 0 0 -0 -0 -0 -0 -0 -0 0 0 0 0 0 0 0 0 0 0 0
0 0 0 0 0 0 0 0 0 0 0 0 0 0 0 0 0 0 0 0 -0 0 0 -0 0 0 0 0 0 0 0 0 0 0 0 0 -0 -0 -0 0 0 0 -0 -0 0 -0 0 0 0 0 0 0 0 0
0 0 0 0 0 0 0 0 0 0 0 0 -0 -0 -0 0 0 -0 -0 0 0 0 0 0 0 0 -0 0 0 0 0 0 0 0 0 0 0 -0 0 0 0 -0 0 0 -0 -0 -0 0 0 0 0 0 0 0
0 0 0 0 0 0 0 0 0 0 0 0 0 -0 0 0 0 0 -0 0 0 0 0 0 0 0 0 0 0 0 0 0 0 0 0 0 0 0 0 0 0 0 -0 -0 -0 0 0 -0 0 0 0 0 0 0
0 0 0 0 0 0 0 0 0 0 0 0 0 0 0 0 0 0 0 0 -0 0 0 0 0 0 0 -0 0 0 0 0 0 0 0 0 0 0 -0 0 0 0 0 0 -0 -0 0 0 0 -0 0 0 0 0
0 0 0 0 0 0 0 0 0 0 0 0 0 0 0 0 0 0 0 -0 0 -0 0 0 0 0 -0 0 0 -0 0 0 0 0 0 -0 0 0 0 0 0 0 0 0 0 -0 -0 -0 0 0 0 0 0 0
0 0 0 0 0 0 0 0 0 0 0 0 0 0 0 0 0 0 0 0 0 -0 -0 -0 0 0 -0 0 0 0 -0 0 0 0 0 0 0 0 0 0 0 0 0 0 0 0 0 0 0 0 0 0 0 0
0 0 0 0 0 0 0 0 0 0 0 0 0 0 0 0 0 0 0 0 0 0 0 0 -0 -0 0 0 0 0 -0 -0 -0 0 0 0 0 0 0 0 0 0 0 0 0 0 0 0 0 0 0 0 0 0
0 0 0 0 0 0 0 0 0 0 0 0 0 0 0 0 0 0 0 0 0 0 0 -0 0 -0 0 -0 0 0 0 0 0 0 0 0 0 0 0 0 0 0 0 0 0 0 0 0 0 0 0 0 0 0
0 0 0 0 0 0 0 0 0 0 0 0 0 0 0 0 0 0 0 0 0 0 0 -0 -0 0 0 0 0 0 -0 -0 0 0 0 0 0 0 0 0 0 0 0 0 0 0 0 0 0 0 0 0 0 0
0 0 0 0 0 0 0 0 0 0 0 0 0 0 0 0 0 0 0 0 0 0 0 0 0 0 0 0 0 0 0 0 0 0 0 0 0 0 0 0 -0 -0 -0 -0 -0 -0 -0 -0 0 0 0 0 0 0
-0 0 0 0 0 0 0 0 0 0 0 0 0 0 0 0 0 0 0 0 0 0 0 0 0 0 0 0 0 0 0 0 0 0 0 0 0 0 0 0 -0 -0 -0 -0 -0 -0 -0 0 0 0 0 0 0 0
0 0 0 -0 0 0 0 0 0 0 0 0 0 0 0 0 0 0 0 0 0 0 0 0 0 0 0 0 0 0 0 0 0 0 0 0 0 0 0 0 0 0 0 0 0 0 0 0 0 0 0 0 0 0
0 0 0 0 0 0 0 0 0 0 0 0 0 0 0 0 0 0 0 0 0 0 0 0 0 0 0 0 0 0 0 0 0 0 0 0 0 0 0 0 0 0 0 0 0 0 0 0 0 0 0 0 0 0
0 0 0 0 0 0 0 0 0 0 0 0 0 0 0 0 0 0 0 0 0 0 0 0 0 0 0 0 0 0 0 0 0 0 0 0 0 0 0 0 0 0 0 0 0 0 0 0 0 0 0 0 0 0
0 0 0 0 0 0 0 0 0 0 0 0 0 0 0 0 0 0 0 0 0 0 0 0 0 0 0 0 0 0 0 0 0 0 0 0 0 0 0 0 0 0 0 0 0 0 0 0 0 0 0 0 0 0
0 0 0 0 0 0 0 0 0 0 0 0 0 0 0 0 0 0 0 0 0 0 0 0 0 0 0 0 0 0 0 0 0 0 0 0 0 0 0 0 0 0 0 0 0 0 0 0 0 0 0 0 0 0
0 0 0 0 0 0 0 0 0 0 -0 -0 0 -0 -0 -0 0 0 0 0 0 0 0 0 0 0 0 0 0 0 0 0 0 0 0 0 0 0 0 0 0 0 0 0 0 0 0 0 0 0 0 0 0 0
0 0 0 0 -0 -0 0 0 0 -0 -0 -0 -0 -0 -0 -0 0 0 0 0 0 0 0 0 0 0 0 0 0 0 0 0 0 0 0 0 0 0 0 0 0 0 0 0 0 0 0 0 0 0 0 0 0 0
-0 0 -0 -0 0 -0 -0 0 0 -0 -0 0 0 -0 -0 0 0 0 0 0 0 0 0 0 0 0 0 0 0 0 0 0 0 0 0 0 0 0 0 0 0 0 0 0 0 0 0 0 0 0 0 0 0 0
-0 0 -0 -0 0 -0 -0 -0 0 0 -0 0 -0 -0 -0 0 0 0 0 -0 0 0 0 0 0 0 0 0 0 0 0 0 0 0 0 0 0 0 0 0 0 0 0 0 0 0 0 0 0 0 0 0 0 0
-0 0 0 0 0 0 -0 0 0 -0 0 -0 0 0 0 0 0 0 0 -0 0 0 0 0 0 0 0 0 0 0 0 0 0 0 0 0 0 0 0 0 0 0 0 0 0 0 0 0 0 0 0 0 0 0
-0 0 -0 0 0 0 0 0 0 -0 -0 0 0 0 0 0 0 -0 -0 -0 0 0 0 0 0 0 0 0 0 0 0 0 0 0 0 0 0 0 0 0 0 0 0 0 0 0 0 0 0 0 0 0 0 0
0 0 0 -0 0 0 -0 0 0 -0 -0 -0 0 0 0 -0 -0 -0 -0 0 0 0 0 0 0 0 0 0 0 0 0 0 0 0 0 0 0 0 0 0 0 0 0 0 0 0 0 0 0 0 0 0 0 0
0 0 -0 0 -0 -0 0 0 0 -0 -0 -0 -0 0 0 0 -0 -0 0 0 0 0 0 0 0 0 0 0 0 0 0 0 0 0 0 0 0 0 0 0 0 0 0 0 0 0 0 0 0 0 0 0 0 0
0 -0 -0 0 0 0 0 0 0 0 0 0 0 0 0 -0 -0 -0 -0 -0 0 0 0 0 0 0 0 0 0 0 0 0 0 0 0 0 0 0 0 0 0 0 0 0 0 0 0 0 0 0 0 0 0 0
0 0 0 -0 0 0 0 0 0 0 0 0 0 0 0 0 -0 -0 -0 0 0 0 0 0 0 0 0 0 0 0 0 0 0 0 0 0 0 0 0 0 0 0 0 0 0 0 0 0 0 0 0 0 0 0
0 0 0 0 0 0 0 0 0 0 0 0 0 0 0 0 0 0 -0 -0 0 0 0 0 0 0 0 0 0 0 0 0 0 0 0 0 0 0 0 0 0 0 0 0 0 0 0 0 0 0 0 0 0 0
Wind_Speed_500mb
67 72 65 61 68 72 61 49 43 38 42 37 43 47 38 35 35 36 37 36 43 15 44 31 19 21 15 8 3 15 19 6 9 9 6 6 5 7 8 6 5 3 1 3 2 3 11 3 9 5 6 2 24 15
57 71 70 67 62 63 60 49 45 36 40 46 41 48 43 34 33 37 36 33 37 34 26 24 29 42 52 57 40 11 12 5 6 3 3 5 4 5 11 5 4 2 5 6 10 9 7 8 10 15 23 3 22 37
71 65 67 59 58 60 56 52 51 42 35 41 43 43 45 36 33 38 36 31 35 43 44 53 58 33 42 60 58 16 14 11 6 5 3 4 7 2 5 7 8 7 9 6 3 4 7 26 15 10 10 38 36 36
71 63 75 61 59 60 64 63 59 47 36 35 42 44 42 39 37 36 38 35 32 11 8 18 20 33 26 20 34 52 57 14 6 11 7 4 6 7 5 8 11 7 13 13 5 8 5 29 27 18 35 42 39 35
74 65 64 58 57 56 53 53 59 50 38 28 43 44 38 38 33 34 34 36 36 27 7 20 54 41 24 23 33 39 51 56 36 9 7 4 8 6 7 5 4 10 9 7 5 20 9 24 29 18 32 37 23 29
62 65 73 59 55 54 54 50 53 55 41 30 45 46 35 33 31 29 16 44 48 42 13 6 14 24 17 9 18 40 37 35 26 14 11 9 14 5 5 6 19 23 24 31 7 25 33 18 37 29 34 33 24 24
64 70 66 57 52 49 53 58 58 61 40 30 44 49 38 37 41 41 14 6 23 55 9 7 10 8 7 22 15 25 28 20 20 11 9 6 20 16 5 6 15 19 23 32 42 20 26 47 23 33 31 24 16 19
51 63 67 61 50 49 50 51 48 42 33 30 43 44 37 39 40 55 57 16 12 47 13 5 8 10 11 10 13 20 17 23 13 9 6 7 6 7 6 7 15 18 15 29 27 30 24 21 27 34 26 21 14 14
56 58 54 49 45 42 50 51 49 43 33 38 41 37 34 36 36 48 45 45 46 25 9 9 5 7 6 9 9 14 17 6 14 6 7 11 5 8 6 12 18 23 17 25 12 18 25 27 26 26 25 19 15 11
57 56 55 51 46 45 45 46 45 42 41 42 37 18 18 21 29 25 16 19 23 22 16 7 10 5 12 12 6 5 12 5 7 10 13 6 5 16 14 11 12 19 21 26 29 29 35 27 25 23 20 15 13 13
60 56 54 51 52 47 42 39 43 51 43 43 25 12 19 45 25 17 13 15 14 5 14 14 32 8 13 5 4 15 2 6 5 6 9 5 3 6 10 14 15 17 19 21 18 19 22 24 25 21 16 12 12 13
56 56 54 56 57 56 48 55 53 53 34 32 18 35 42 13 9 7 7 9 9 9 12 9 13 23 9 12 8 10 6 6 8 16 6 4 3 11 9 14 17 16 18 19 21 21 22 22 21 21 22 20 16 13
55 55 52 51 52 56 65 59 62 52 38 43 14 14 12 8 8 12 11 5 7 8 15 14 7 12 15 13 10 5 8 9 22 4 3 4 12 11 13 17 19 16 15 16 19 18 19 20 21 19 16 16 16 14
56 57 57 57 57 59 64 59 55 50 45 17 14 12 8 7 8 7 2 3 5 8 14 19 8 8 9 7 3 3 3 3 4 5 4 2 11 8 10 15 19 22 22 21 19 19 19 18 17 16 14 13 12 10
60 59 56 53 55 56 57 56 55 65 17 9 9 9 6 6 7 8 7 9 6 6 7 7 5 7 3 3 2 3 3 4 4 4 3 10 8 5 8 11 13 12 14 17 19 18 17 18 16 15 14 14 13 12
58 50 54 53 55 51 50 69 65 21 9 8 11 6 7 8 5 9 11 5 4 5 6 7 5 5 1 2 4 4 3 2 2 3 12 8 7 5 5 7 8 9 10 15 19 21 19 19 22 22 18 16 16 15
76 25 63 62 75 96 86 70 28 14 10 9 8 18 17 18 11 8 7 11 6 4 3 1 4 3 2 5 4 6 3 1 17 14 9 9 10 8 10 11 10 11 12 16 24 24 23 24 21 16 17 20 17 15
53 68 77 101 105 78 63 20 14 11 12 13 10 10 26 16 8 13 12 15 5 4 5 5 4 7 5 5 2 2 7 15 12 10 9 10 11 13 15 17 14 11 12 13 19 19 20 20 18 19 20 18 15 14
79 84 95 96 69 54 13 12 12 11 11 15 21 19 19 18 27 17 11 16 20 17 15 10 10 5 2 4 3 10 10 4 6 7 6 7 8 11 15 18 18 15 14 14 15 16 17 18 17 16 15 14 12 13
98 101 69 60 45 14 12 11 11 14 8 8 13 13 11 13 12 24 26 22 20 12 15 8 3 4 5 13 12 9 7 4 11 10 3 1 4 7 10 13 15 15 14 12 13 13 15 14 13 14 13 13 13 14
74 58 50 39 28 20 14 10 12 11 15 14 16 8 11 19 15 19 20 20 18 12 8 10 16 16 12 13 10 8 11 5 1 3 4 1 2 4 8 12 15 15 12 10 10 10 12 13 15 14 13 13 14 15
49 43 36 25 17 13 14 14 18 16 11 17 11 9 9 7 8 13 10 22 11 13 8 15 14 11 12 14 13 11 11 8 7 8 7 2 3 3 8 11 14 13 12 13 11 11 11 12 12 12 12 12 12 13
37 18 13 10 10 9 9 9 9 7 7 8 9 7 5 6 6 8 10 10 8 10 14 13 14 14 16 15 12 11 10 10 10 9 9 8 7 6 7 6 9 12 12 13 13 12 11 11 11 11 11 12 11 11
19 9 9 8 10 6 10 6 8 9 9 5 5 5 4 7 7 9 5 5 7 20 18 17 13 9 7 6 8 10 10 12 12 10 11 11 8 10 10 9 10 11 12 12 11 11 11 11 9 8 9 9 9 8
7 13 8 8 7 8 8 6 6 7 5 2 6 3 2 6 5 5 4 7 16 18 12 7 3 3 7 10 10 10 9 11 11 6 11 13 14 12 10 10 10 10 10 11 11 12 11 10 9 8 7 7 7 6
11 14 7 2 2 8 5 6 5 8 6 5 3 6 5 6 7 3 5 21 25 18 13 9 10 9 11 9 6 5 5 5 8 7 6 3 3 6 8 7 6 8 7 8 8 7 7 7 6 6 5 5 4 4
8 2 8 9 10 15 10 13 9 9 6 7 4 5 6 7 5 5 17 20 19 19 14 10 10 8 10 10 9 11 14 12 9 9 8 7 7 8 7 6 7 9 10 10 8 7 4 2 3 3 3 3 2 1
8 5 9 6 15 13 9 5 5 4 4 7 10 6 10 13 7 13 14 20 19 19 15 10 9 7 6 4 2 1 3 4 6 9 10 10 12 10 9 7 8 9 10 9 7 7 4 2 1 2 4 4 3 4
9 10 10 11 12 12 12 4 4 4 6 5 8 5 8 7 17 22 29 20 19 16 16 13 11 10 9 9 7 4 1 5 7 8 10 12 14 14 11 11 11 11 12 10 6 6 5 2 1 2 0 2 2 2
7 7 12 9 8 6 9 5 8 14 16 19 18 22 29 27 33 30 28 27 21 15 10 8 5 6 6 7 9 7 4 3 5 9 13 14 13 14 14 11 9 9 10 9 6 3 4 4 4 5 6 6 5 6
11 9 12 11 9 17 34 36 33 27 21 27 38 38 29 22 25 24 21 15 13 6 6 4 3 1 2 2 4 6 6 6 7 8 10 10 11 12 12 13 12 10 8 7 5 4 4 4 4 7 5 3 4 7
6 7 14 8 8 33 10 7 11 13 10 11 10 10 17 12 15 27 30 23 16 12 9 4 1 3 2 1 2 4 5 6 6 8 9 10 11 11 11 12 12 11 8 7 6 3 5 6 6 7 8 9 11 12
17 27 28 17 14 15 12 10 8 8 7 6 7 12 5 12 10 24 31 27 22 14 8 6 7 6 3 0 2 5 6 6 8 10 10 9 10 10 10 9 9 9 9 9 9 8 6 4 6 8 9 11 11 12
Wind_Direction_500mb
231 233 232 233 226 225 218 221 223 224 222 223 225 221 218 219 218 221 231 224 216 226 254 248 241 227 224 215 207 313 338 330 338 16 3 334 320 320 326 286 319 22 20 251 108 86 262 327 341 28 259 269 125 155
239 226 226 225 229 218 211 214 216 218 222 223 222 220 217 215 216 220 226 228 229 227 255 266 260 257 256 260 265 249 246 331 282 328 351 315 316 293 300 292 326 211 224 220 209 221 273 331 287 309 315 177 134 137
234 226 223 220 223 221 218 218 218 213 219 224 226 222 214 215 221 222 222 226 219 234 263 267 268 288 261 253 250 230 250 229 219 244 318 280 276 154 310 307 290 250 311 250 159 341 321 22 16 29 97 109 113 127
235 220 213 214 216 216 215 217 219 213 216 215 222 208 209 214 218 220 221 226 228 270 275 278 285 271 273 256 241 235 233 259 303 341 284 248 271 240 262 259 280 268 311 291 233 16 23 27 38 104 103 100 98 110
225 218 206 208 212 211 205 214 209 208 213 215 210 206 210 211 211 217 226 231 235 224 289 290 298 288 268 228 244 235 231 237 251 260 240 244 249 294 280 267 275 326 344 323 24 346 319 39 39 99 102 93 100 94
203 207 203 200 205 210 210 209 206 208 209 206 209 205 206 207 203 207 238 241 231 226 258 287 286 276 286 253 257 223 224 224 214 212 226 233 259 268 303 297 43 38 17 21 346 49 56 67 48 63 85 89 92 101
211 196 192 200 207 210 209 212 213 201 199 216 208 206 208 206 201 196 201 177 216 208 241 274 278 264 287 238 206 206 212 197 211 231 237 235 269 291 239 254 21 8 32 30 32 34 28 35 13 28 57 59 66 75
187 182 186 199 208 204 204 205 201 193 203 212 196 197 206 210 217 229 221 226 175 181 212 250 264 313 196 175 178 187 185 197 223 237 169 209 256 215 254 69 49 9 352 27 26 42 45 21 18 19 25 30 30 48
188 188 192 198 197 200 196 193 199 201 213 196 190 196 211 221 221 227 236 236 251 210 218 217 192 252 187 179 158 176 172 173 204 203 222 170 209 229 41 40 29 24 16 341 16 12 23 22 19 15 15 23 18 12
190 193 196 197 193 187 186 192 199 211 191 182 191 196 206 195 205 203 199 189 204 206 229 218 212 271 182 180 185 164 198 198 192 220 166 220 192 90 65 57 24 13 6 1 1 359 4 13 6 7 7 360 356 0
189 193 194 194 195 198 199 197 182 171 181 195 196 197 150 148 145 170 195 185 188 233 207 225 207 206 211 156 174 200 213 162 207 222 184 213 139 81 55 47 16 7 357 8 8 359 351 345 347 352 354 355 360 358
194 198 202 203 204 202 195 180 180 188 188 183 152 132 139 154 173 195 188 164 196 222 199 195 222 212 217 189 189 203 197 165 228 146 189 204 74 64 38 22 24 14 2 3 4 354 346 342 345 343 342 351 358 349
200 202 209 206 196 192 188 189 189 196 179 170 167 157 147 170 199 178 187 183 194 200 182 183 185 176 204 198 229 220 207 206 135 134 115 48 101 66 28 8 8 13 7 358 354 349 347 345 343 343 344 340 340 341
195 186 180 179 182 183 189 200 200 192 164 180 164 137 184 188 223 189 176 128 127 157 173 195 162 194 180 181 260 318 286 12 155 127 120 77 81 75 29 16 2 359 359 2 4 6 8 7 7 2 3 360 360 359
192 195 202 204 200 196 193 194 185 176 188 128 144 153 180 154 88 107 117 122 76 152 177 187 192 193 157 219 219 327 343 50 45 92 108 105 75 40 34 23 21 16 13 18 21 19 19 22 21 27 35 35 37 41
190 194 204 199 184 171 164 163 167 152 75 73 56 90 99 88 15 56 48 77 15 306 244 219 156 139 89 48 72 31 306 41 138 76 118 109 88 81 46 19 19 35 43 39 31 27 27 33 36 38 39 49 55 60
152 162 157 149 148 156 147 142 114 63 69 65 51 67 81 74 67 62 35 353 332 328 233 16 64 113 100 75 95 19 121 221 133 125 108 68 59 47 23 10 5 16 21 22 19 19 26 31 30 34 45 53 55 65
136 143 144 151 146 134 128 75 80 81 73 66 82 61 69 73 75 42 16 16 57 59 38 78 73 59 73 126 169 302 67 115 120 112 89 65 45 32 19 17 17 12 5 8 9 20 32 33 30 40 38 43 45 60
138 148 154 145 134 128 88 58 52 89 79 95 98 78 73 73 57 50 52 71 86 99 101 55 63 65 119 70 81 70 85 128 171 147 101 60 44 31 25 26 25 25 20 14 20 24 25 23 31 39 37 39 41 55
138 140 136 136 143 91 89 71 82 90 93 104 103 81 73 75 50 46 55 67 72 52 49 46 56 49 82 84 86 67 25 356 177 154 171 354 21 19 17 22 19 20 17 19 15 20 23 22 36 44 45 43 46 58
126 118 125 125 77 68 83 93 76 91 113 96 109 77 88 62 44 37 33 32 60 40 60 85 96 92 97 107 96 67 61 127 100 237 228 204 353 342 6 12 15 17 20 21 17 19 24 35 44 44 47 54 60 71
113 120 110 61 66 67 70 58 104 103 79 123 107 86 80 58 41 25 41 47 60 42 87 118 100 114 116 95 85 82 68 57 71 95 109 92 51 17 4 14 14 24 40 43 43 42 42 42 44 48 55 67 74 85
141 118 71 72 91 74 121 111 81 91 98 124 113 71 48 71 66 40 71 62 80 101 122 117 106 105 107 97 94 95 79 58 56 57 62 57 57 52 37 36 38 34 38 47 50 50 49 53 58 63 69 76 81 92
121 75 59 62 67 109 130 79 88 95 111 79 80 100 88 117 101 66 79 81 98 144 125 107 98 107 110 99 85 78 77 62 43 55 73 64 66 69 58 62 62 57 47 36 32 30 32 40 48 58 74 75 81 93
100 19 58 24 75 85 67 32 20 68 100 103 98 96 111 118 76 66 149 138 139 150 145 132 11 111 131 119 98 75 80 88 68 65 94 86 70 57 52 46 40 39 42 41 33 33 39 50 58 62 70 86 86 86
75 19 63 146 15 100 171 104 141 146 114 75 86 99 88 81 72 176 203 164 156 147 126 89 68 88 114 107 84 59 63 109 89 42 93 116 27 12 14 14 18 27 29 27 24 13 6 3 10 19 32 46 57 66
90 332 67 55 104 105 78 80 93 93 99 143 174 73 76 80 210 235 159 161 165 158 149 123 92 93 97 101 90 81 75 74 73 77 60 33 10 8 11 22 24 22 10 2 358 348 334 315 300 298 296 307 319 302
92 74 123 44 72 51 114 70 80 124 185 140 104 76 134 167 191 157 160 161 165 168 163 145 125 102 87 92 116 126 101 79 72 62 41 24 12 1 350 355 4 352 342 339 349 10 9 354 258 229 236 249 278 278
71 105 96 46 63 56 44 109 156 99 122 115 112 150 131 103 139 148 152 153 146 139 131 123 119 94 70 65 65 71 197 255 265 289 318 341 336 328 322 316 318 327 328 320 302 308 327 344 151 146 171 314 295 252
98 77 93 73 69 32 4 44 106 118 114 111 108 112 104 113 134 139 139 134 127 125 134 144 104 86 77 66 50 38 21 337 303 301 313 323 331 331 331 332 330 336 352 359 352 278 250 263 281 296 301 307 302 287
110 105 86 73 83 106 105 102 103 108 102 106 120 117 116 127 148 159 168 165 163 165 155 111 125 105 17 11 353 3 8 354 343 335 331 328 328 333 341 348 348 341 335 337 326 318 273 266 303 323 318 311 315 303
67 90 125 105 134 160 125 105 84 91 91 94 95 113 127 136 158 173 184 185 186 195 201 231 159 133 122 65 8 5 0 355 345 341 340 342 344 345 345 347 352 353 355 1 357 314 268 252 268 306 309 308 315 311
97 103 105 104 134 178 178 141 99 99 94 103 124 157 144 161 168 186 189 187 175 183 204 202 174 161 158 142 18 17 12 6 360 359 2 5 9 11 12 13 15 14 10 8 11 16 12 330 300 299 307 317 321 321
Wind_Speed_850mb
67 72 65 61 68 72 61 49 43 38 42 37 43 47 38 35 35 36 37 36 43 15 44 31 19 21 15 8 3 15 19 6 9 9 6 6 5 7 8 6 5 3 1 3 2 3 11 3 9 5 6 2 24 15
57 71 70 67 62 63 60 49 45 36 40 46 41 48 43 34 33 37 36 33 37 34 26 24 29 42 52 57 40 11 12 5 6 3 3 5 4 5 11 5 4 2 5 6 10 9 7 8 10 15 23 3 22 37
71 65 67 59 58 60 56 52 51 42 35 41 43 43 45 36 33 38 36 31 35 43 44 53 58 33 42 60 58 16 14 11 6 5 3 4 7 2 5 7 8 7 9 6 3 4 7 26 15 10 10 38 36 36
71 63 75 61 59 60 64 63 59 47 36 35 42 44 42 39 37 36 38 35 32 11 8 18 20 33 26 20 34 52 57 14 6 11 7 4 6 7 5 8 11 7 13 13 5 8 5 29 27 18 35 42 39 35
74 65 64 58 57 56 53 53 59 50 38 28 43 44 38 38 33 34 34 36 36 27 7 20 54 41 24 23 33 39 51 56 36 9 7 4 8 6 7 5 4 10 9 7 5 20 9 24 29 18 32 37 23 29
62 65 73 59 55 54 54 50 53 55 41 30 45 46 35 33 31 29 16 44 48 42 13 6 14 24 17 9 18 40 37 35 26 14 11 9 14 5 5 6 19 23 24 31 7 25 33 18 37 29 34 33 24 24
64 70 66 57 52 49 53 58 58 61 40 30 44 49 38 37 41 41 14 6 23 55 9 7 10 8 7 22 15 25 28 20 20 11 9 6 20 16 5 6 15 19 23 32 42 20 26 47 23 33 31 24 16 19
51 63 67 61 50 49 50 51 48 42 33 30 43 44 37 39 40 55 57 16 12 47 13 5 8 10 11 10 13 20 17 23 13 9 6 7 6 7 6 7 15 18 15 29 27 30 24 21 27 34 26 21 14 14
56 58 54 49 45 42 50 51 49 43 33 38 41 37 34 36 36 48 45 45 46 25 9 9 5 7 6 9 9 14 17 6 14 6 7 11 5 8 6 12 18 23 17 25 12 18 25 27 26 26 25 19 15 11
57 56 55 51 46 45 45 46 45 42 41 42 37 18 18 21 29 25 16 19 23 22 16 7 10 5 12 12 6 5 12 5 7 10 13 6 5 16 14 11 12 19 21 26 29 29 35 27 25 23 20 15 13 13
60 56 54 51 52 47 42 39 43 51 43 43 25 12 19 45 25 17 13 15 14 5 14 14 32 8 13 5 4 15 2 6 5 6 9 5 3 6 10 14 15 17 19 21 18 19 22 24 25 21 16 12 12 13
56 56 54 56 57 56 48 55 53 53 34 32 18 35 42 13 9 7 7 9 9 9 12 9 13 23 9 12 8 10 6 6 8 16 6 4 3 11 9 14 17 16 18 19 21 21 22 22 21 21 22 20 16 13
55 55 52 51 52 56 65 59 62 52 38 43 14 14 12 8 8 12 11 5 7 8 15 14 7 12 15 13 10 5 8 9 22 4 3 4 12 11 13 17 19 16 15 16 19 18 19 20 21 19 16 16 16 14
56 57 57 57 57 59 64 59 55 50 45 17 14 12 8 7 8 7 2 3 5 8 14 19 8 8 9 7 3 3 3 3 4 5 4 2 11 8 10 15 19 22 22 21 19 19 19 18 17 16 14 13 12 10
60 59 56 53 55 56 57 56 55 65 17 9 9 9 6 6 7 8 7 9 6 6 7 7 5 7 3 3 2 3 3 4 4 4 3 10 8 5 8 11 13 12 14 17 19 18 17 18 16 15 14 14 13 12
58 50 54 53 55 51 50 69 65 21 9 8 11 6 7 8 5 9 11 5 4 5 6 7 5 5 1 2 4 4 3 2 2 3 12 8 7 5 5 7 8 9 10 15 19 21 19 19 22 22 18 16 16 15
76 25 63 62 75 96 86 70 28 14 10 9 8 18 17 18 11 8 7 11 6 4 3 1 4 3 2 5 4 6 3 1 17 14 9 9 10 8 10 11 10 11 12 16 24 24 23 24 21 16 17 20 17 15
53 68 77 101 105 78 63 20 14 11 12 13 10 10 26 16 8 13 12 15 5 4 5 5 4 7 5 5 2 2 7 15 12 10 9 10 11 13 15 17 14 11 12 13 19 19 20 20 18 19 20 18 15 14
79 84 95 96 69 54 13 12 12 11 11 15 21 19 19 18 27 17 11 16 20 17 15 10 10 5 2 4 3 10 10 4 6 7 6 7 8 11 15 18 18 15 14 14 15 16 17 18 17 16 15 14 12 13
98 101 69 60 45 14 12 11 11 14 8 8 13 13 11 13 12 24 26 22 20 12 15 8 3 4 5 13 12 9 7 4 11 10 3 1 4 7 10 13 15 15 14 12 13 13 15 14 13 14 13 13 13 14
74 58 50 39 28 20 14 10 12 11 15 14 16 8 11 19 15 19 20 20 18 12 8 10 16 16 12 13 10 8 11 5 1 3 4 1 2 4 8 12 15 15 12 10 10 10 12 13 15 14 13 13 14 15
49 43 36 25 17 13 14 14 18 16 11 17 11 9 9 7 8 13 10 22 11 13 8 15 14 11 12 14 13 11 11 8 7 8 7 2 3 3 8 11 14 13 12 13 11 11 11 12 12 12 12 12 12 13
37 18 13 10 10 9 9 9 9 7 7 8 9 7 5 6 6 8 10 10 8 10 14 13 14 14 16 15 12 11 10 10 10 9 9 8 7 6 7 6 9 12 12 13 13 12 11 11 11 11 11 12 11 11
19 9 9 8 10 6 10 6 8 9 9 5 5 5 4 7 7 9 5 5 7 20 18 17 13 9 7 6 8 10 10 12 12 10 11 11 8 10 10 9 10 11 12 12 11 11 11 11 9 8 9 9 9 8
7 13 8 8 7 8 8 6 6 7 5 2 6 3 2 6 5 5 4 7 16 18 12 7 3 3 7 10 10 10 9 11 11 6 11 13 14 12 10 10 10 10 10 11 11 12 11 10 9 8 7 7 7 6
11 14 7 2 2 8 5 6 5 8 6 5 3 6 5 6 7 3 5 21 25 18 13 9 10 9 11 9 6 5 5 5 8 7 6 3 3 6 8 7 6 8 7 8 8 7 7 7 6 6 5 5 4 4
8 2 8 9 10 15 10 13 9 9 6 7 4 5 6 7 5 5 17 20 19 19 14 10 10 8 10 10 9 11 14 12 9 9 8 7 7 8 7 6 7 9 10 10 8 7 4 2 3 3 3 3 2 1
8 5 9 6 15 13 9 5 5 4 4 7 10 6 10 13 7 13 14 20 19 19 15 10 9 7 6 4 2 1 3 4 6 9 10 10 12 10 9 7 8 9 10 9 7 7 4 2 1 2 4 4 3 4
9 10 10 11 12 12 12 4 4 4 6 5 8 5 8 7 17 22 29 20 19 16 16 13 11 10 9 9 7 4 1 5 7 8 10 12 14 14 11 11 11 11 12 10 6 6 5 2 1 2 0 2 2 2
7 7 12 9 8 6 9 5 8 14 16 19 18 22 29 27 33 30 28 27 21 15 10 8 5 6 6 7 9 7 4 3 5 9 13 14 13 14 14 11 9 9 10 9 6 3 4 4 4 5 6 6 5 6
11 9 12 11 9 17 34 36 33 27 21 27 38 38 29 22 25 24 21 15 13 6 6 4 3 1 2 2 4 6 6 6 7 8 10 10 11 12 12 13 12 10 8 7 5 4 4 4 4 7 5 3 4 7
6 7 14 8 8 33 10 7 11 13 10 11 10 10 17 12 15 27 30 23 16 12 9 4 1 3 2 1 2 4 5 6 6 8 9 10 11 11 11 12 12 11 8 7 6 3 5 6 6 7 8 9 11 12
17 27 28 17 14 15 12 10 8 8 7 6 7 12 5 12 10 24 31 27 22 14 8 6 7 6 3 0 2 5 6 6 8 10 10 9 10 10 10 9 9 9 9 9 9 8 6 4 6 8 9 11 11 12
Wind_Direction_850mb
231 233 232 233 226 225 218 221 223 224 222 223 225 221 218 219 218 221 231 224 216 226 254 248 241 227 224 215 207 313 338 330 338 16 3 334 320 320 326 286 319 22 20 251 108 86 262 327 341 28 259 269 125 155
239 226 226 225 229 218 211 214 216 218 222 223 222 220 217 215 216 220 226 228 229 227 255 266 260 257 256 260 265 249 246 331 282 328 351 315 316 293 300 292 326 211 224 220 209 221 273 331 287 309 315 177 134 137
234 226 223 220 223 221 218 218 218 213 219 224 226 222 214 215 221 222 222 226 219 234 263 267 268 288 261 253 250 230 250 229 219 244 318 280 276 154 310 307 290 250 311 250 159 341 321 22 16 29 97 109 113 127
235 220 213 214 216 216 215 217 219 213 216 215 222 208 209 214 218 220 221 226 228 270 275 278 285 271 273 256 241 235 233 259 303 341 284 248 271 240 262 259 280 268 311 291 233 16 23 27 38 104 103 100 98 110
225 218 206 208 212 211 205 214 209 208 213 215 210 206 210 211 211 217 226 231 235 224 289 290 298 288 268 228 244 235 231 237 251 260 240 244 249 294 280 267 275 326 344 323 24 346 319 39 39 99 102 93 100 94
203 207 203 200 205 210 210 209 206 208 209 206 209 205 206 207 203 207 238 241 231 226 258 287 286 276 286 253 257 223 224 224 214 212 226 233 259 268 303 297 43 38 17 21 346 49 56 67 48 63 85 89 92 101
211 196 192 200 207 210 209 212 213 201 199 216 208 206 208 206 201 196 201 177 216 208 241 274 278 264 287 238 206 206 212 197 211 231 237 235 269 291 239 254 21 8 32 30 32 34 28 35 13 28 57 59 66 75
187 182 186 199 208 204 204 205 201 193 203 212 196 197 206 210 217 229 221 226 175 181 212 250 264 313 196 175 178 187 185 197 223 237 169 209 256 215 254 69 49 9 352 27 26 42 45 21 18 19 25 30 30 48
188 188 192 198 197 200 196 193 199 201 213 196 190 196 211 221 221 227 236 236 251 210 218 217 192 252 187 179 158 176 172 173 204 203 222 170 209 229 41 40 29 24 16 341 16 12 23 22 19 15 15 23 18 12
190 193 196 197 193 187 186 192 199 211 191 182 191 196 206 195 205 203 199 189 204 206 229 218 212 271 182 180 185 164 198 198 192 220 166 220 192 90 65 57 24 13 6 1 1 359 4 13 6 7 7 360 356 0
189 193 194 194 195 198 199 197 182 171 181 195 196 197 150 148 145 170 195 185 188 233 207 225 207 206 211 156 174 200 213 162 207 222 184 213 139 81 55 47 16 7 357 8 8 359 351 345 347 352 354 355 360 358
194 198 202 203 204 202 195 180 180 188 188 183 152 132 139 154 173 195 188 164 196 222 199 195 222 212 217 189 189 203 197 165 228 146 189 204 74 64 38 22 24 14 2 3 4 354 346 342 345 343 342 351 358 349
200 202 209 206 196 192 188 189 189 196 179 170 167 157 147 170 199 178 187 183 194 200 182 183 185 176 204 198 229 220 207 206 135 134 115 48 101 66 28 8 8 13 7 358 354 349 347 345 343 343 344 340 340 341
195 186 180 179 182 183 189 200 200 192 164 180 164 137 184 188 223 189 176 128 127 157 173 195 162 194 180 181 260 318 286 12 155 127 120 77 81 75 29 16 2 359 359 2 4 6 8 7 7 2 3 360 360 359
192 195 202 204 200 196 193 194 185 176 188 128 144 153 180 154 88 107 117 122 76 152 177 187 192 193 157 219 219 327 343 50 45 92 108 105 75 40 34 23 21 16 13 18 21 19 19 22 21 27 35 35 37 41
190 194 204 199 184 171 164 163 167 152 75 73 56 90 99 88 15 56 48 77 15 306 244 219 156 139 89 48 72 31 306 41 138 76 118 109 88 81 46 19 19 35 43 39 31 27 27 33 36 38 39 49 55 60
152 162 157 149 148 156 147 142 114 63 69 65 51 67 81 74 67 62 35 353 332 328 233 16 64 113 100 75 95 19 121 221 133 125 108 68 59 47 23 10 5 16 21 22 19 19 26 31 30 34 45 53 55 65
136 143 144 151 146 134 128 75 80 81 73 66 82 61 69 73 75 42 16 16 57 59 38 78 73 59 73 126 169 302 67 115 120 112 89 65 45 32 19 17 17 12 5 8 9 20 32 33 30 40 38 43 45 60
138 148 154 145 134 128 88 58 52 89 79 95 98 78 73 73 57 50 52 71 86 99 101 55 63 65 119 70 81 70 85 128 171 147 101 60 44 31 25 26 25 25 20 14 20 24 25 23 31 39 37 39 41 55
138 140 136 136 143 91 89 71 82 90 93 104 103 81 73 75 50 46 55 67 72 52 49 46 56 49 82 84 86 67 25 356 177 154 171 354 21 19 17 22 19 20 17 19 15 20 23 22 36 44 45 43 46 58
126 118 125 125 77 68 83 93 76 91 113 96 109 77 88 62 44 37 33 32 60 40 60 85 96 92 97 107 96 67 61 127 100 237 228 204 353 342 6 12 15 17 20 21 17 19 24 35 44 44 47 54 60 71
113 120 110 61 66 67 70 58 104 103 79 123 107 86 80 58 41 25 41 47 60 42 87 118 100 114 116 95 85 82 68 57 71 95 109 92 51 17 4 14 14 24 40 43 43 42 42 42 44 48 55 67 74 85
141 118 71 72 91 74 121 111 81 91 98 124 113 71 48 71 66 40 71 62 80 101 122 117 106 105 107 97 94 95 79 58 56 57 62 57 57 52 37 36 38 34 38 47 50 50 49 53 58 63 69 76 81 92
121 75 59 62 67 109 130 79 88 95 111 79 80 100 88 117 101 66 79 81 98 144 125 107 98 107 110 99 85 78 77 62 43 55 73 64 66 69 58 62 62 57 47 36 32 30 32 40 48 58 74 75 81 93
100 19 58 24 75 85 67 32 20 68 100 103 98 96 111 118 76 66 149 138 139 150 145 132 11 111 131 119 98 75 80 88 68 65 94 86 70 57 52 46 40 39 42 41 33 33 39 50 58 62 70 86 86 86
75 19 63 146 15 100 171 104 141 146 114 75 86 99 88 81 72 176 203 164 156 147 126 89 68 88 114 107 84 59 63 109 89 42 93 116 27 12 14 14 18 27 29 27 24 13 6 3 10 19 32 46 57 66
90 332 67 55 104 105 78 80 93 93 99 143 174 73 76 80 210 235 159 161 165 158 149 123 92 93 97 101 90 81 75 74 73 77 60 33 10 8 11 22 24 22 10 2 358 348 334 315 300 298 296 307 319 302
92 74 123 44 72 51 114 70 80 124 185 140 104 76 134 167 191 157 160 161 165 168 163 145 125 102 87 92 116 126 101 79 72 62 41 24 12 1 350 355 4 352 342 339 349 10 9 354 258 229 236 249 278 278
71 105 96 46 63 56 44 109 156 99 122 115 112 150 131 103 139 148 152 153 146 139 131 123 119 94 70 65 65 71 197 255 265 289 318 341 336 328 322 316 318 327 328 320 302 308 327 344 151 146 171 314 295 252
98 77 93 73 69 32 4 44 106 118 114 111 108 112 104 113 134 139 139 134 127 125 134 144 104 86 77 66 50 38 21 337 303 301 313 323 331 331 331 332 330 336 352 359 352 278 250 263 281 296 301 307 302 287
110 105 86 73 83 106 105 102 103 108 102 106 120 117 116 127 148 159 168 165 163 165 155 111 125 105 17 11 353 3 8 354 343 335 331 328 328 333 341 348 348 341 335 337 326 318 273 266 303 323 318 311 315 303
67 90 125 105 134 160 125 105 84 91 91 94 95 113 127 136 158 173 184 185 186 195 201 231 159 133 122 65 8 5 0 355 345 341 340 342 344 345 345 347 352 353 355 1 357 314 268 252 268 306 309 308 315 311
97 103 105 104 134 178 178 141 99 99 94 103 124 157 144 161 168 186 189 187 175 183 204 202 174 161 158 142 18 17 12 6 360 359 2 5 9 11 12 13 15 14 10 8 11 16 12 330 300 299 307 317 321 321